Syracuse, NY

6:17 AM EST on December 10, 2019 (GMT -0500)
Syracuse Hancock International

Weather History for KSYR - October, 2019

Change the Weather History Date:

Wednesday, October 2, 2019

  Actual Average Record
Temperature  
Mean Temperature 60 °F 56 °F  
Max Temperature 71 °F 65 °F 86 °F (1927)
Min Temperature 48 °F 46 °F 33 °F (1960)
Degree Days  
Heating Degree Days 5 10  
Month to date heating degree days 5 20  
Since 1 July heating degree days 80 187  
Cooling Degree Days 0 0  
Month to date cooling degree days 11 0  
Year to date cooling degree days 622 565  
Growing Degree Days 10 (Base 50)    
Moisture  
Dew Point 58 °F    
Average Humidity 85    
Maximum Humidity 93    
Minimum Humidity 71    
Precipitation  
Precipitation 0.11 in 0.12 in 1.82 in (1929)
Month to date precipitation 0.12 0.23  
Year to date precipitation 34.25 28.51  
Snow  
Snow 0.00 in 0.00 in 1.40 in (1974)
Month to date snowfall 0.0 0.0  
Since 1 July snowfall T 0.0  
Since 1 September snowfall T 0.0  
Snow Depth 0.00 in    
Sea Level Pressure  
Sea Level Pressure 29.91 in    
Wind  
Wind Speed 9 mph ()    
Max Wind Speed 18 mph    
Max Gust Speed 21 mph    
Visibility 9.5 miles    
Events Rain    
T = Trace of Precipitation, MM = Missing Value Source: Averaged Metar Reports

Daily Weather History Graph

Daily Weather History Graph

Search for Another Location

Airport or City:

Astronomy

Oct. 02, 2019 Rise Set
Actual Time 7:02 AM EDT 6:44 PM EDT
Civil Twilight 6:34 AM EDT 7:12 PM EDT
Nautical Twilight 6:01 AM EDT 7:45 PM EDT
Astronomical Twilight 5:27 AM EDT 8:18 PM EDT
Moon 11:32 AM EDT (10/2) 9:29 PM EDT (10/2)
Length of Visible Light 12h 38m
Length of Day
11h 41m
Waxing Crescent, 20% of the Moon is Illuminated
Oct 2
Waxing Crescent
Oct 5
First Quarter
Oct 13
Full
Oct 21
Last Quarter
Oct 27
New

Hourly Weather History & Observations

Time (EDT) Temp. Dew Point Humidity Pressure Visibility Wind Dir Wind Speed Gust Speed Precip Events Conditions
12:54 AM 72.0 °F 66.0 °F 81% 29.81 in 10.0 mi WSW 11.5 mph - N/A   Overcast
1:54 AM 71.1 °F 66.0 °F 84% 29.82 in 10.0 mi WSW 11.5 mph - N/A   Overcast
2:54 AM 71.1 °F 66.0 °F 84% 29.82 in 10.0 mi West 8.1 mph - 0.00 in   Light Drizzle
2:59 AM 71.1 °F 66.0 °F 84% 29.84 in 10.0 mi West 9.2 mph - 0.00 in   Light Drizzle
3:54 AM 71.1 °F 66.0 °F 84% 29.82 in 10.0 mi West 9.2 mph - 0.00 in   Overcast
4:37 AM 71.1 °F 66.0 °F 84% 29.83 in 10.0 mi West 8.1 mph - N/A   Overcast
4:54 AM 71.1 °F 66.0 °F 84% 29.82 in 10.0 mi WNW 10.4 mph - N/A   Overcast
5:54 AM 70.0 °F 66.0 °F 87% 29.82 in 10.0 mi WSW 8.1 mph - N/A   Overcast
6:30 AM 69.1 °F 66.0 °F 90% 29.84 in 10.0 mi WSW 8.1 mph - 0.00 in Rain Light Rain
6:54 AM 69.1 °F 66.9 °F 93% 29.83 in 5.0 mi West 5.8 mph - 0.04 in Rain Light Rain
6:56 AM 69.1 °F 66.9 °F 93% 29.85 in 5.0 mi West 6.9 mph - 0.00 in Rain Light Rain
7:44 AM 69.1 °F 64.9 °F 87% 29.84 in 10.0 mi WNW 5.8 mph - 0.05 in Rain Light Rain
7:54 AM 69.1 °F 66.0 °F 90% 29.83 in 10.0 mi WNW 6.9 mph - 0.05 in   Overcast
8:54 AM 68.0 °F 64.9 °F 90% 29.81 in 6.0 mi SW 3.5 mph - 0.01 in Rain Light Rain
9:54 AM 68.0 °F 64.0 °F 87% 29.82 in 10.0 mi NW 9.2 mph - 0.00 in   Overcast
10:54 AM 64.0 °F 62.1 °F 93% 29.84 in 10.0 mi NNW 15.0 mph - N/A   Overcast
11:25 AM 63.0 °F 60.1 °F 90% 29.85 in 10.0 mi NW 9.2 mph - N/A   Overcast
11:54 AM 63.0 °F 60.1 °F 90% 29.86 in 10.0 mi WNW 10.4 mph - N/A   Overcast
12:11 PM 63.0 °F 59.0 °F 87% 29.87 in 10.0 mi NW 10.4 mph - N/A   Overcast
12:54 PM 63.0 °F 59.0 °F 87% 29.88 in 10.0 mi NW 9.2 mph - 0.00 in Rain Light Rain
1:01 PM 62.1 °F 57.9 °F 86% 29.90 in 6.0 mi NW 12.7 mph - 0.00 in Rain Light Rain
1:28 PM 61.0 °F 57.9 °F 90% 29.91 in 8.0 mi NW 12.7 mph - 0.00 in Rain Light Rain
1:54 PM 60.1 °F 57.0 °F 90% 29.90 in 10.0 mi NW 11.5 mph - 0.00 in Rain Light Rain
2:54 PM 59.0 °F 55.0 °F 87% 29.92 in 10.0 mi WNW 11.5 mph - 0.00 in   Overcast
3:54 PM 57.0 °F 54.0 °F 89% 29.94 in 10.0 mi NW 11.5 mph - 0.01 in Rain Light Rain
4:54 PM 57.0 °F 52.0 °F 83% 29.95 in 10.0 mi NW 11.5 mph - 0.00 in   Overcast
5:12 PM 57.0 °F 52.0 °F 83% 29.97 in 10.0 mi NW 12.7 mph - N/A   Overcast
5:54 PM 55.9 °F 51.1 °F 84% 29.97 in 10.0 mi NW 10.4 mph - N/A   Overcast
6:38 PM 55.0 °F 50.0 °F 83% 30.00 in 10.0 mi NNW 10.4 mph - N/A   Overcast
6:54 PM 54.0 °F 48.9 °F 83% 30.01 in 10.0 mi NNW 12.7 mph - N/A   Overcast
7:54 PM 53.1 °F 46.0 °F 77% 30.05 in 10.0 mi North 10.4 mph - N/A   Overcast
7:58 PM 53.1 °F 46.0 °F 77% 30.05 in 10.0 mi North 6.9 mph - N/A   Overcast
8:54 PM 53.1 °F 45.0 °F 74% 30.07 in 10.0 mi North 5.8 mph - N/A   Overcast
9:54 PM 52.0 °F 45.0 °F 77% 30.10 in 10.0 mi North 5.8 mph - N/A   Overcast
10:54 PM 50.0 °F 43.0 °F 77% 30.10 in 10.0 mi North 6.9 mph - N/A   Mostly Cloudy
11:01 PM 48.9 °F 43.0 °F 80% 30.11 in 10.0 mi NNW 5.8 mph - N/A   Scattered Clouds
11:54 PM 48.9 °F 44.1 °F 83% 30.11 in 10.0 mi NNW 6.9 mph - N/A   Mostly Cloudy